[[{"header":{"parameterUnit":"m.s-1","parameterCategory":1,"la1":30.2991,"la2":30.254,"lo1":-89.0895,"lo2":-89.0444,"dy":0.0017,"dx":0.0017,"nx":28,"ny":28,"refTime":"2023-07-20T09:00:00:Z","depth":0,"parameterNumber":2,"parameterNumberName":"U-component_of_WINDS"},"data":[0,0,0,0,0,0,0,0,0,0,0,0,0,0,0,0,0,0,0,0,0,0,0,0,0,0,0,0,0,0,0,0,0,0,0,0,0,0,0,0,0,0,0,0,0,0,0,0,0,0,0,0,0,0,0,0,0,0,2.6019,2.6019,0,2.6014,2.6014,2.6014,2.5945,2.5943,2.5941,2.594,2.5935,2.5936,2.5938,0,0,0,0,0,0,0,0,0,0,0,0,0,2.5967,2.5968,2.6019,2.6019,2.6019,2.6014,2.6014,2.6014,2.5945,2.5943,2.5941,2.5939,2.5934,2.5936,2.5938,0,0,0,0,0,0,0,0,0,0,0,0,0,2.5979,2.5969,2.6019,2.5984,2.5981,2.6014,2.6014,2.6014,2.5946,2.5943,2.594,2.5938,2.5934,2.5936,2.5938,2.6005,0,0,2.5945,2.5946,0,0,0,0,0,0,0,0,2.5978,2.598,2.5989,2.5986,2.5983,2.5977,2.5994,2.6011,2.5946,2.5959,2.594,2.5937,2.5951,2.5952,2.5957,2.6004,2.6004,2.5945,2.5947,2.5948,2.5948,0,0,0,0,0,0,0,2.5977,2.598,2.6017,2.5989,2.5986,2.5968,2.5967,2.5997,2.597,2.5958,2.5953,2.5953,2.5949,2.5955,2.5956,2.6004,2.5945,2.5947,2.5949,2.595,2.6102,2.6104,0,0,0,0,0,0,2.5981,2.598,2.6017,2.6017,2.5974,2.5971,2.597,2.5982,2.5969,2.5965,2.5955,2.595,2.5952,2.5954,2.5956,2.6029,2.5948,2.595,2.5951,2.6099,2.6102,2.6105,0,0,0,0,0,0,2.5981,2.5985,2.6017,2.5997,2.6,2.5975,2.5989,2.5983,2.5989,2.5968,2.5962,2.5966,2.595,2.5952,2.5992,2.6028,2.5951,2.5953,2.6096,2.61,2.6104,2.6179,0,0,0,0,0,0,2.5979,2.5985,2.6011,2.5998,2.6001,2.6055,2.5991,2.5985,2.5993,2.5986,2.5976,2.5972,2.5948,2.5989,2.5994,2.603,2.5955,2.6092,2.6098,2.6102,2.6173,2.6185,2.6195,0,0,0,0,0,2.5978,2.6034,2.6013,2.6018,2.6033,2.6057,2.6058,2.603,2.5996,2.6021,2.6007,2.5973,2.6024,2.5994,2.5999,2.6036,2.609,2.6096,2.6102,2.6168,2.6183,2.6195,0,0,0,0,0,0,2.6052,2.6031,2.6008,2.6062,2.6061,2.6045,2.6076,2.6047,2.6056,2.6049,2.6013,2.6012,2.6056,2.605,2.6017,2.6097,2.6051,2.6058,2.6099,2.6113,2.6124,2.6123,2.5956,0,0,0,0,0,2.6075,2.6097,2.6077,2.6126,2.6127,2.6102,2.6111,2.6089,2.6087,2.6087,2.6076,2.6075,2.6091,2.6102,2.6115,2.6172,2.6167,2.62,2.6211,2.622,2.6226,2.6252,2.6265,2.6125,2.6125,2.6125,0,0,2.6122,2.6113,2.6129,2.6141,2.6138,2.616,2.6102,2.6129,2.6144,2.6091,2.6126,2.6118,2.6115,2.6163,2.6183,2.6159,2.6264,2.6228,2.6236,2.6237,2.626,2.6273,2.6285,2.6129,2.6128,2.6128,0,0,2.6218,2.6215,2.6253,2.6251,2.6247,2.6229,2.6239,2.6226,2.6218,2.6254,2.6213,2.6231,2.626,2.6258,2.6261,2.6353,2.6321,2.6359,2.6416,2.6441,2.6452,2.6462,2.6491,2.6503,2.6365,2.6366,2.6366,0,2.6277,2.6308,2.6277,2.6305,2.6309,2.6262,2.6299,2.6299,2.63,2.6304,2.6277,2.6309,2.6304,2.6349,2.6371,2.6376,2.6384,2.6358,2.6454,2.6463,2.6471,2.6499,2.651,2.637,2.6369,2.6369,2.6368,0,2.6379,2.6401,2.6433,2.6433,2.6442,2.6475,2.6447,2.6459,2.6436,2.642,2.6455,2.6447,2.6456,2.6466,2.6444,2.6506,2.6491,2.646,2.6412,2.6489,2.6514,2.6525,2.6376,2.6375,2.6373,2.6372,0,0,2.6522,2.6502,2.6514,2.6512,2.6503,2.6519,2.6549,2.6557,2.6567,2.6569,2.6591,2.6615,2.6585,2.6588,2.6566,2.6589,2.6658,2.6554,2.6553,2.6571,2.6722,2.6743,2.6756,2.6638,2.664,2.6641,2.6721,0,2.6611,2.666,2.6631,2.6684,2.6702,2.6656,2.6681,2.6678,2.6664,2.6677,2.6662,2.6678,2.6639,2.664,2.6661,2.6645,2.6687,2.664,2.6655,2.6656,2.6655,2.677,2.6793,2.6869,2.6731,2.6733,2.6734,0,2.6722,2.6727,2.6781,2.6765,2.6771,2.6795,2.6798,2.6812,2.6806,2.6794,2.6797,2.6768,2.6794,2.6748,2.6783,2.6751,2.6756,2.6749,2.6751,2.6749,2.6698,2.6768,2.6893,2.6903,2.675,2.6749,2.6748,0,2.6816,2.6837,2.687,2.687,2.6854,2.687,2.6864,2.6856,2.6862,2.6865,2.6868,2.6875,2.6878,2.6883,2.6856,2.6826,2.6892,2.6845,2.6881,2.6882,2.6895,2.6894,2.702,2.6904,2.6904,2.6904,2.6903,0,2.6917,2.6951,2.6911,2.6932,2.6968,2.6934,2.697,2.6959,2.6952,2.6968,2.693,2.6947,2.6911,2.6923,2.6903,2.6932,2.6935,2.6924,2.6918,2.6926,2.6927,2.6926,2.6919,2.6907,2.6906,2.6905,2.6905,0,2.7028,2.7003,2.7036,2.7016,2.7012,2.7039,2.7022,2.704,2.7023,2.7044,2.7047,2.702,2.7033,2.7006,2.7016,2.7001,2.7042,2.7029,2.7043,2.7038,2.7074,2.707,2.7201,2.7215,2.7094,2.7095,2.7096,0,2.7092,2.7117,2.7099,2.7107,2.7102,2.7116,2.7121,2.7089,2.7095,2.7089,2.7106,2.7115,2.712,2.7142,2.7123,2.7129,2.7113,2.7159,2.7114,2.712,2.711,2.7107,2.7108,2.7167,2.7169,2.717,2.7171,0,2.7208,2.7194,2.7202,2.7205,2.7212,2.7213,2.7212,2.7221,2.7186,2.7195,2.7206,2.721,2.7217,2.7226,2.7227,2.722,2.7189,2.7186,2.7193,2.72,2.7206,2.72,2.7065,2.7182,2.7181,2.718,2.718,2.7179,2.7295,2.7313,2.7303,2.7312,2.7307,2.7306,2.732,2.7304,2.7313,2.7316,2.7297,2.7311,2.7302,2.7301,2.7296,2.7307,2.7286,2.7299,2.7301,2.7304,2.7308,2.7207,2.7307,2.7307,2.7307,2.7307,2.7306,0,2.7406,2.7396,2.7405,2.7403,2.741,2.7381,2.7377,2.7384,2.7397,2.7392,2.7397,2.7408,2.7415,2.7397,2.74,2.7412,2.7398,2.7414,2.7411,2.7409,2.7328,2.7319,2.7425,2.7425,2.7425,2.7425,2.7425,2.7425,2.7464,2.7492,2.7476,2.75,2.749,2.7503,2.7503,2.7501,2.7496,2.751,2.7515,2.7503,2.7491,2.7493,2.7498,2.7492,2.7494,2.7514,2.7503,2.7427,2.7415,2.7404,2.7395,2.7516,2.7516,2.7583,2.7583,2.7584]},{"header":{"parameterUnit":"m.s-1","parameterCategory":1,"la1":30.2991,"la2":30.254,"lo1":-89.0895,"lo2":-89.0444,"dy":0.0017,"dx":0.0017,"nx":28,"ny":28,"refTime":"2023-07-20T09:00:00:Z","depth":0,"parameterNumber":3,"parameterNumberName":"V-component_of_WINDS"},"data":[0,0,0,0,0,0,0,0,0,0,0,0,0,0,0,0,0,0,0,0,0,0,0,0,0,0,0,0,0,0,0,0,0,0,0,0,0,0,0,0,0,0,0,0,0,0,0,0,0,0,0,0,0,0,0,0,0,0,3.6979,3.6981,0,3.7092,3.7093,3.7094,3.7081,3.708,3.7078,3.7076,3.7185,3.719,3.7194,0,0,0,0,0,0,0,0,0,0,0,0,0,3.6746,3.675,3.6979,3.6981,3.6982,3.7092,3.7093,3.7095,3.7082,3.7079,3.7077,3.7075,3.7184,3.7189,3.7195,0,0,0,0,0,0,0,0,0,0,0,0,0,3.6852,3.6752,3.6979,3.6989,3.6991,3.7091,3.7093,3.7095,3.7082,3.7079,3.7077,3.7074,3.7182,3.7189,3.7195,3.7291,0,0,3.7216,3.7219,0,0,0,0,0,0,0,0,3.6846,3.686,3.6986,3.6988,3.6991,3.707,3.7051,3.7161,3.7083,3.7047,3.7076,3.7073,3.7149,3.7158,3.7185,3.7296,3.7301,3.7217,3.7221,3.7224,3.7226,0,0,0,0,0,0,0,3.6838,3.6855,3.7024,3.6988,3.6991,3.6985,3.6997,3.7072,3.7111,3.705,3.705,3.7063,3.7149,3.7178,3.7187,3.7303,3.7217,3.7223,3.7227,3.723,3.7496,3.7498,0,0,0,0,0,0,3.6829,3.6849,3.702,3.7027,3.691,3.6992,3.7005,3.7047,3.7111,3.7118,3.7065,3.7062,3.7168,3.7179,3.7191,3.7306,3.7224,3.723,3.7234,3.7493,3.7496,3.7499,0,0,0,0,0,0,3.6825,3.6845,3.7015,3.6938,3.6959,3.6999,3.7046,3.7051,3.708,3.7122,3.7129,3.7088,3.7166,3.7181,3.7266,3.7309,3.7233,3.724,3.7489,3.7494,3.7498,3.7537,0,0,0,0,0,0,3.6818,3.6843,3.6882,3.6939,3.6964,3.7091,3.7049,3.7055,3.7092,3.7089,3.7145,3.7152,3.7165,3.7256,3.7273,3.7318,3.7245,3.7485,3.7491,3.7496,3.7532,3.7542,3.7551,0,0,0,0,0,3.681,3.6888,3.6884,3.6905,3.7013,3.7094,3.7107,3.7123,3.7096,3.7134,3.7161,3.715,3.7302,3.7265,3.7284,3.7331,3.7483,3.749,3.7496,3.7528,3.754,3.7551,0,0,0,0,0,0,3.6833,3.6895,3.6892,3.6991,3.7038,3.7091,3.714,3.7136,3.7189,3.7184,3.7199,3.7212,3.7297,3.7323,3.728,3.7426,3.7388,3.7399,3.7406,3.7418,3.7428,3.7419,3.7251,0,0,0,0,0,3.685,3.6912,3.6963,3.7045,3.7069,3.71,3.7136,3.7144,3.7192,3.7211,3.7244,3.7289,3.7346,3.7384,3.7439,3.7536,3.7546,3.7577,3.7587,3.7594,3.7603,3.7654,3.7667,3.7521,3.7521,3.7521,0,0,3.6885,3.6927,3.6965,3.7051,3.7088,3.7149,3.7117,3.7184,3.7229,3.722,3.7302,3.7328,3.7379,3.747,3.7511,3.7493,3.7646,3.7603,3.7609,3.7613,3.7662,3.7676,3.7688,3.7526,3.7525,3.7524,0,0,3.698,3.7019,3.7092,3.7129,3.7186,3.7206,3.7223,3.7278,3.7295,3.7378,3.7372,3.7425,3.7525,3.756,3.7592,3.7699,3.769,3.7716,3.7765,3.7814,3.7826,3.7836,3.7872,3.7885,3.7725,3.7725,3.7725,0,3.7016,3.7111,3.7129,3.7197,3.7233,3.723,3.7301,3.7336,3.7407,3.7431,3.7411,3.7535,3.7569,3.7667,3.7693,3.7719,3.7737,3.771,3.7823,3.7834,3.7843,3.7878,3.7892,3.7728,3.7728,3.7727,3.7727,0,3.7151,3.7217,3.7268,3.7339,3.7381,3.7451,3.7476,3.7517,3.752,3.7542,3.7625,3.7666,3.7729,3.7752,3.7757,3.785,3.7837,3.782,3.7783,3.786,3.7892,3.7906,3.7732,3.7731,3.773,3.7729,0,0,3.7265,3.7343,3.7362,3.7392,3.7454,3.7504,3.7572,3.7635,3.7668,3.7717,3.7773,3.7856,3.7841,3.7876,3.7884,3.7927,3.8007,3.7904,3.7905,3.792,3.811,3.8121,3.8137,3.8002,3.8004,3.8007,3.8105,0,3.7365,3.7488,3.7504,3.7612,3.7671,3.7668,3.7726,3.7769,3.779,3.7842,3.7865,3.7924,3.7899,3.792,3.7963,3.7988,3.8045,3.7981,3.8051,3.8053,3.8037,3.8154,3.8167,3.8258,3.8118,3.812,3.8122,0,3.7498,3.7552,3.7666,3.7717,3.7743,3.7796,3.7854,3.7904,3.7951,3.7964,3.8003,3.8005,3.8072,3.8033,3.8124,3.8081,3.811,3.8126,3.813,3.8136,3.8091,3.8161,3.8288,3.8301,3.8142,3.8141,3.8139,0,3.7567,3.7667,3.7748,3.7775,3.7838,3.7875,3.7902,3.7947,3.7983,3.8033,3.8056,3.8113,3.8143,3.8186,3.8202,3.8172,3.8292,3.8254,3.8302,3.8301,3.8326,3.8324,3.8457,3.8348,3.8347,3.8347,3.8347,0,3.7676,3.7745,3.778,3.7829,3.7906,3.7923,3.7997,3.8023,3.8063,3.8115,3.8115,3.8163,3.8183,3.8233,3.8246,3.8319,3.8333,3.8343,3.8345,3.8342,3.8341,3.8361,3.8354,3.8351,3.835,3.8349,3.8349,0,3.7766,3.7792,3.7879,3.7932,3.7946,3.8,3.8044,3.809,3.8111,3.8177,3.8193,3.8225,3.8285,3.8306,3.8378,3.8386,3.847,3.8468,3.8455,3.8455,3.85,3.8495,3.865,3.867,3.8548,3.855,3.8551,0,3.7833,3.7886,3.7945,3.798,3.801,3.8068,3.8105,3.8123,3.8161,3.8218,3.8257,3.8317,3.8366,3.8461,3.8489,3.8543,3.8541,3.8591,3.8549,3.8544,3.854,3.8536,3.854,3.8599,3.86,3.8601,3.8602,0,3.7949,3.7959,3.8014,3.8073,3.8117,3.8164,3.8209,3.8238,3.8263,3.8305,3.8367,3.8405,3.8479,3.8537,3.8593,3.8618,3.8613,3.8615,3.8629,3.8626,3.8615,3.8619,3.8474,3.8611,3.861,3.861,3.8609,3.8609,3.8028,3.8074,3.8123,3.8183,3.8219,3.8261,3.8307,3.8334,3.8386,3.8449,3.8456,3.8522,3.8565,3.864,3.8668,3.8718,3.8704,3.8724,3.8729,3.8733,3.8736,3.8608,3.8728,3.8728,3.8728,3.8728,3.8728,0,3.8142,3.8173,3.8229,3.8292,3.8339,3.8333,3.8382,3.842,3.8479,3.8521,3.8569,3.8639,3.8696,3.8728,3.8784,3.8817,3.8816,3.8831,3.8828,3.8833,3.8746,3.8728,3.8831,3.8831,3.8831,3.8831,3.8831,3.8831,3.8207,3.8285,3.83,3.8395,3.8424,3.8491,3.8519,3.8557,3.859,3.8669,3.8716,3.8738,3.8775,3.8833,3.8884,3.8892,3.8911,3.8927,3.8933,3.8851,3.884,3.883,3.8813,3.8932,3.8932,3.9016,3.9017,3.9018]}]]